Location: Newark
(45.4422°N, 16.2769°E)
Time: 14:40:17
(UTC+00:00)

Explorer 7 - Visible Passes

Search period start: 20 January 2021 00:00
Search period end: 30 January 2021 00:00
Orbit: 484 x 678 km, 50.3° (Epoch: 19 January)

Date Brightness Start Highest point End Pass type
(mag) Time Alt. Az. Time Alt. Az. Time Alt. Az.
20 Jan 8.7 04:15:16 15° S 04:17:30 25° SE 04:20:51 10° E visible
21 Jan 7.9 04:20:25 27° S 04:21:54 38° SE 04:25:41 10° ENE visible
22 Jan 7.1 04:25:21 42° SSW 04:26:22 59° SSE 04:30:22 10° ENE visible
23 Jan 6.6 04:30:07 56° SW 04:30:54 85° SSE 04:34:59 10° ENE visible
24 Jan 10.0 02:58:27 11° E 02:58:27 11° E 02:58:39 10° E visible
24 Jan 6.6 04:34:45 54° W 04:35:29 70° NNW 04:39:33 10° ENE visible
25 Jan 9.9 03:03:00 13° ENE 03:03:00 13° ENE 03:03:26 10° ENE visible
25 Jan 6.9 04:39:18 44° WNW 04:40:08 55° NNW 04:44:09 10° ENE visible
26 Jan 9.7 03:07:29 14° ENE 03:07:29 14° ENE 03:08:06 10° ENE visible
26 Jan 7.2 04:43:46 36° NW 04:44:49 46° N 04:48:45 10° ENE visible
27 Jan 9.6 03:11:54 15° ENE 03:11:54 15° ENE 03:12:42 10° ENE visible
27 Jan 7.4 04:48:12 30° NW 04:49:31 41° N 04:53:24 10° ENE visible
28 Jan 9.4 03:16:17 17° ENE 03:16:17 17° ENE 03:17:16 10° ENE visible
28 Jan 7.5 04:52:35 26° NW 04:54:14 40° N 04:58:06 10° ENE visible
29 Jan 9.3 03:20:39 18° ENE 03:20:39 18° ENE 03:21:51 10° ENE visible
29 Jan 7.5 04:56:56 23° NW 04:58:56 41° N 05:02:51 10° ENE visible
